This is the latest recevied weather packets stored in our database for station/object AI9F. If no packets are shown the sender has not sent any weather packets the latest 10 day(s).
| Time | Temp. | Humidity | Pressure | Rain* | Wind** | Luminosity | Snow |
|---|---|---|---|---|---|---|---|
| 1777236692 | 27.22° C | 40% | 1012.1 hPa | 0 mm | - | 124 W/m² | - |
| 1777236392 | 27.22° C | 43% | 1012.2 hPa | 0 mm | - | 580 W/m² | - |
| 1777236088 | 27.22° C | 40% | 1012.3 hPa | 0 mm | - | 614 W/m² | - |
| 1777235785 | 27.78° C | 44% | 1012.3 hPa | 0 mm | - | 611 W/m² | - |
| 1777235482 | 27.22° C | 46% | 1012.3 hPa | 0 mm | - | 622 W/m² | - |
| 1777235178 | 26.67° C | 43% | 1012.4 hPa | 0 mm | - | 649 W/m² | - |
| 1777234874 | 26.67° C | 46% | 1012.7 hPa | 0 mm | - | 647 W/m² | - |
| 1777234570 | 26.67° C | 40% | 1012.7 hPa | 0 mm | - | 659 W/m² | - |
| 1777234270 | 26.67° C | 42% | 1012.9 hPa | 0 mm | - | 626 W/m² | - |
| 1777233966 | 26.67° C | 44% | 1013 hPa | 0 mm | - | 687 W/m² | - |
| 1777233663 | 25.56° C | 47% | 1013 hPa | 0 mm | - | 705 W/m² | - |
| 1777233363 | 26.67° C | 42% | 1013.3 hPa | 0 mm | - | 415 W/m² | - |
| 1777233058 | 27.22° C | 41% | 1013.1 hPa | 0 mm | - | 706 W/m² | - |
| 1777232755 | 26.67° C | 43% | 1013.3 hPa | 0 mm | - | 705 W/m² | - |
| 1777232453 | 26.67° C | 44% | 1013.4 hPa | 0 mm | - | 686 W/m² | - |
| 1777232150 | 26.67° C | 46% | 1013.5 hPa | 0 mm | - | 738 W/m² | - |
| 1777231847 | 26.11° C | 44% | 1013.4 hPa | 0 mm | - | 749 W/m² | - |
| 1777231544 | 26.11° C | 45% | 1013.6 hPa | 0 mm | - | 761 W/m² | - |
| 1777231240 | 26.67° C | 42% | 1013.4 hPa | 0 mm | - | 764 W/m² | - |
| 1777230936 | 26.67° C | 44% | 1013.7 hPa | 0 mm | - | 747 W/m² | - |
| 1777230632 | 26.67° C | 45% | 1013.6 hPa | 0 mm | - | 758 W/m² | - |
| 1777230327 | 26.11° C | 47% | 1013.8 hPa | 0 mm | - | 778 W/m² | - |
| 1777230025 | 26.67° C | 42% | 1013.9 hPa | 0 mm | - | 623 W/m² | - |
| 1777229721 | 26.11° C | 51% | 1014 hPa | 0 mm | - | 790 W/m² | - |
| 1777229418 | 26.11° C | 46% | 1013.8 hPa | 0 mm | - | 789 W/m² | - |
* Rain latest hour (hover to see other rain measurements)
** Current wind speed in m/s (hover to see current wind gust speed)